Home   Weather   Neumünster   Past weeks

Flag for Germany Past Weather in Neumünster, Schleswig-Holstein, Germany — Yesterday and Last 2 Weeks

Now
30 °F

Sunny.


Feels Like: 30 °F
Forecast: 33 / 40 °F
Wind: No wind

Location: Itzehoe

Current Time: Dec 5, 2016 at 11:45:10 am

Latest Report: Dec 5, 2016 at 11:00 am


Visibility: 3 mi

Pressure: 30.35 "Hg

Humidity: 84%

Dew Point: 26 °F

Location of NeumünsterLocation

Past Weather in Neumünster — Graph

°F

Neumünster Temperature Yesterday

Maximum temperature yesterday: 37 °F (at 3:00 pm)
Minimum temperature yesterday: 26 °F (at 12:00 am)
Average temperature yesterday: 33 °F

High & Low Weather Summary for the Past Weeks

 TemperatureHumidityPressure
High55 °F (Nov 22, 2:00 pm)100% (Nov 25, 11:00 am)30.57 "Hg (Nov 25, 11:00 am)
Low20 °F (Nov 29, 2:00 am)51% (Dec 2, 2:00 pm)29.26 "Hg (Nov 20, 5:00 pm)
Average38 °F86%30.14 "Hg
* Reported Nov 20 9:00 am — Dec 5 9:00 am, Neumünster, Weather by CustomWeather, © 2016

Note: Actual official high and low records may vary slightly from our data, if they occured in-between our weather recording intervals... More about our weather records

Advertising

Neumünster Weather History for the Previous 24 Hours

Scroll right to see more
 ConditionsComfort  
Time TempWeatherWind HumidityBarometerVisibility
9:00 am
Mon, Dec 5
23 °FSunny.1 mph95%30.34 "Hg0 mi
8:00 am24 °FClear.No wind96%30.34 "Hg0 mi
6:00 am24 °FClear.1 mph96%30.36 "Hg1 mi
5:00 am25 °FClear.No wind96%30.37 "Hg0 mi
3:00 am30 °FClear.1 mph96%30.39 "Hg2 mi
2:00 am30 °FPassing clouds.No wind96%30.40 "Hg3 mi
12:00 am33 °FOvercast.No wind93%30.42 "Hg7 mi
11:00 pm
Sun, Dec 4
33 °FOvercast.1 mph89%30.41 "Hg6 mi
9:00 pm35 °FOvercast.1 mph87%30.42 "Hg9 mi
8:00 pm35 °FOvercast.1 mph90%30.42 "Hg5 mi
6:00 pm35 °FOvercast.No wind91%30.42 "Hg6 mi
5:00 pm36 °FOvercast.No wind88%30.41 "Hg9 mi
3:00 pm37 °FOvercast.1 mph84%30.41 "Hg12 mi
2:00 pm37 °FOvercast.2 mph85%30.42 "Hg11 mi
12:00 pm36 °FOvercast.1 mph87%30.42 "Hg10 mi
11:00 am35 °FOvercast.2 mph90%30.42 "Hg8 mi
Weather by CustomWeather, © 2016

See weather overviewHow to use our weather pages